{"data":{"norad_id":45433,"epoch":"2026-09-20T02:22:23.395296Z","epoch_age_seconds":49104,"freshness":"FRESH","line1":"1 45433U 20020K   26263.09888189  .00000129  00000+0  32718-3 0  9998","line2":"2 45433  87.8972   2.2001 0001628 100.4467 259.6844 13.11418644315129","mean_motion":13.11418644,"eccentricity":0.0001628,"inclination_deg":87.8972,"raan_deg":2.2001,"arg_perigee_deg":100.4467,"mean_anomaly_deg":259.6844,"bstar":0.00032718,"rev_number":31512,"period_min":109.80475278343,"perigee_km":1216.4395395165,"apogee_km":1218.9127362742,"semimajor_km":7595.8131378954,"source":"CELESTRAK","updated_at":"2026-09-20T09:00:44.553830Z"}}